Regional Weather Roundup
Issued by NWS

Home | Current Version | Previous Version | Graphics & Text | Print | Product List | Glossary Off
Versions: 1 2 3 4 5 6 7 8 9 10 11 12 13 14 15 16 17 18 19 20 21 22 23 24 25 26 27 28 29 30 31 32 33 34 35 36 37 38 39 40 41 42 43 44 45 46 47 48 49 50

000
ASUS43 KMPX 200201
RWRMN
WEATHER ROUNDUP FOR MINNESOTA
NATIONAL WEATHER SERVICE TWIN CITIES/CHANHASSEN MN
800 PM CST SUN NOV 19 2017


NOTE: "FAIR" INDICATES FEW OR NO CLOUDS BELOW 12,000 FEET WITH NO
SIGNIFICANT WEATHER AND/OR OBSTRUCTIONS TO VISIBILITY. N/A MEANS
CURRENT SKY AND/OR WEATHER CONDITIONS ARE NOT AVAILABLE.

MNZ060>063-068>070-200300-
   Twin Cities Metro

CITY           SKY/WX    TMP DP  RH WIND       PRES   REMARKS
TWIN CITIES    CLOUDY    38  26  62 SW6       29.84F
ST PAUL        CLEAR     30  25  81 SE3       29.86S
CRYSTAL        CLOUDY    35  22  58 S5        29.82F WCI  31
BLAINE         CLEAR     30  25  80 S8        29.82F WCI  23
LAKEVILLE      CLOUDY    36  27  69 CALM      29.85S
EDEN PRAIRIE   CLOUDY    34  24  67 S8        29.82F WCI  27
SOUTH ST PAUL  CLEAR     34  25  71 CALM      29.84F
LAKE ELMO      FAIR      32  27  80 S6        29.84F WCI  26
$$
MNZ001>005-007-008-013>017-022>024-027-028-200300-
   Northwest Minnesota

CITY           SKY/WX    TMP DP  RH WIND       PRES   REMARKS
BEMIDJI        CLEAR     20  17  87 CALM      29.73F
HALLOCK        CLOUDY    14  10  85 SE3       29.74F
ROSEAU         CLOUDY    19  14  79 CALM      29.74F
WARROAD        CLOUDY    19  14  79 E3        29.75F
CROOKSTON      CLOUDY    25  23  93 SE5       29.75F WCI  19
FOSSTON        CLEAR     19  18  93 CALM      29.75S
DETROIT LAKES  CLEAR     32  27  80 CALM      29.76F
MOORHEAD       CLOUDY    30  23  74 CALM      29.76F
PARK RAPIDS    CLEAR     27  20  75 CALM      29.74F
MAHNOMEN       FAIR      28  23  81 S5        29.74F WCI  23
$$
MNZ006-009>011-018-025>026-200300-
   North Central Minnesota

CITY           SKY/WX    TMP DP  RH WIND       PRES   REMARKS
BAUDETTE       CLEAR     17  11  77 SE6       29.74F WCI   9
FLAG ISLAND    CLOUDY    19  16  86 SE3       29.75F
INTL FALLS     CLOUDY    15  10  80 E3        29.77F
WASKISH        CLOUDY    16  12  86 E3        29.74F
BIG FORK       CLEAR     12   9  85 CALM      29.76F
LONGVILLE      CLEAR     19  18  93 CALM      29.76F
GRAND RAPIDS   CLEAR     16  13  88 CALM      29.79S
CRANE LAKE     CLOUDY    10   9  92 CALM      29.82F
ORR            CLOUDY    10   7  85 CALM      29.76F
COOK           CLOUDY    10  10 100 CALM      29.79F
WALKER         FAIR      26  20  79 CALM      29.74F
$$
MNZ012-019>021-037-200300-
   Northeast Minnesota

CITY           SKY/WX    TMP DP  RH WIND       PRES   REMARKS
DULUTH         PTCLDY    21  15  78 E5        29.79F WCI  15
ELY            CLOUDY    14  10  85 CALM      29.79F
HIBBING        PTCLDY    13  10  88 CALM      29.78F
EVELETH        PTCLDY    12   9  85 NE3       29.80F
DULUTH HARBOR  PTCLDY    28  18  64 CALM      29.84F
TWO HARBORS    PTCLDY    18  12  79 CALM      29.80F
SILVER BAY     PTCLDY    16  14  93 CALM      29.81F
GRAND MARAIS     N/A     22  12  65 W5        29.86S WCI  16
G MARAIS ARPRT PTCLDY     9   3  78 CALM      29.77S
$$
MNZ029>031-032-039>041-046>048-054>057-064-200300-
   West Central Minnesota

CITY           SKY/WX    TMP DP  RH WIND       PRES   REMARKS
FERGUS FALLS   CLOUDY    34  25  69 SE5       29.79S WCI  30
WHEATON        CLOUDY    34  23  64 S7        29.79F WCI  28
MORRIS         CLOUDY    37  25  60 SW9       29.77F
ALEXANDRIA     CLOUDY    33  24  69 SW3       29.78F
ELBOW LAKE     FAIR      32  24  71 S6        29.77F WCI  26
WADENA         CLOUDY    25  21  86 CALM      29.75F
GLENWOOD       CLOUDY    34  25  69 SW7       29.78F WCI  28
APPLETON       CLOUDY    36  23  60 SW5       29.79F
BENSON         CLOUDY    36  25  64 W6        29.80F
ORTONVILLE     CLOUDY    37  25  60 MISG      29.78F
MADISON        CLOUDY    41  27  56 SW9       29.80F
WILLMAR        FAIR      37  28  70 SW10      29.81F
$$
MNZ033>034-036-042>043-049>051-058-059-200300-
   Central Minnesota

CITY           SKY/WX    TMP DP  RH WIND       PRES   REMARKS
ST CLOUD       CLOUDY    27  24  89 CALM      29.79F
SAUK CENTRE    FAIR      33  26  73 SW5       29.79S WCI  29
PAYNESVILLE    CLOUDY    35  27  74 CALM      29.80F
AITKIN         CLEAR     25  21  86 S3        29.76F
PINE RIVER     CLEAR     19  16  86 CALM      29.80F
BRAINERD       CLEAR     26  20  77 CALM      29.78F
STAPLES        CLEAR     27  21  80 CALM      29.76F
LONG PRAIRIE   FAIR      32  27  80 S5        29.78F WCI  27
LITTLE FALLS   CLOUDY    27  19  74 CALM      29.79F
LITCHFIELD     CLOUDY    36  27  69 SW3       29.81F
BUFFALO        CLOUDY    34  25  69 CALM      29.82F
MAPLE LAKE     CLOUDY    37  28  71 S3        29.82S
HUTCHINSON     CLOUDY    34  26  71 S5        29.83F WCI  30
$$
MNZ037-044-045-052-053-200300-
   East Central Minnesota

CITY           SKY/WX    TMP DP  RH WIND       PRES   REMARKS
PRINCETON      CLOUDY    27  23  86 CALM      29.80F
MORA           CLEAR     27  21  80 CALM      29.82F
CAMBRIDGE      CLEAR     30  19  64 SE3       29.81F
RUSH CITY      CLEAR     27  19  72 S3        29.82F
MOOSE LAKE     CLEAR     23  18  80 CALM      29.79S
HINCKLEY       FAIR      28  19  69 CALM      29.81F
CLOQUET        CLOUDY    19  14  79 CALM      29.79S
MCGREGOR       CLEAR     27  19  74 CALM      29.78F
$$
MNZ071>073-080-081-089-090-097-098-200300-
   Southwest Minnesota

CITY           SKY/WX    TMP DP  RH WIND       PRES   REMARKS
MONTEVIDEO     CLOUDY    39  25  56 W8        29.80F
GRANITE FALLS  CLOUDY    40  27  58 S12       29.83F
CANBY          CLOUDY    44  26  48 SW12      29.81F
MARSHALL       CLOUDY    44  24  45 SW15      29.82F
REDWOOD FALLS  CLOUDY    39  23  52 SW12      29.82F
OLIVIA         CLOUDY    34  25  69 SW8       29.81F WCI  27
PIPESTONE      CLOUDY    34  23  64 SW7       29.83F WCI  28
WINDOM         CLOUDY    39  21  48 S7        29.85F
WORTHINGTON    CLOUDY    39  26  59 S12       29.86F
JACKSON        CLOUDY    36  27  69 CALM      29.87
SLAYTON        CLOUDY    36  25  63 SW12      29.86F
$$
MNZ065>067-074>077-082>085-091>093-200300-
   South Central Minnesota

CITY           SKY/WX    TMP DP  RH WIND       PRES   REMARKS
MANKATO        CLOUDY    39  26  59 S9        29.86F
NEW ULM        CLOUDY    37  23  56 CALM      29.84F
ST JAMES       CLOUDY    37  27  65 S8        29.86F
FAIRMONT       CLOUDY    38  27  64 S10       29.88F
GLENCOE        CLOUDY    38  27  63 SW5       29.83S
FARIBAULT      CLOUDY    36  27  69 S5        29.87F
OWATONNA       CLOUDY    37  28  70 S12       29.87F
WASECA         CLOUDY    34  28  80 S10       29.89S WCI  26
ALBERT LEA     CLOUDY    37  25  60 SW6       29.89F
$$
MNZ078>079-086>088-094>096-200300-
   Southeast Minnesota

CITY           SKY/WX    TMP DP  RH WIND       PRES   REMARKS
ROCHESTER      CLOUDY    33  27  78 S14       29.89F WCI  23
RED WING       CLEAR     32  25  74 CALM      29.86F
STANTON        CLOUDY    35  28  75 S8        29.85S WCI  29
DODGE CENTER   CLOUDY    36  27  69 S14       29.88F
WINONA         CLEAR     36  27  69 SW10      29.90F
PRESTON        CLEAR     33  25  71 SW14      29.91F WCI  23
$$
ABBREVIATIONS USED IN REMARKS
   TC - TEMPERATURES IN CELSIUS
  WCI - WIND CHILL INDEX
   HX - HEAT INDEX
  VSB - VISIBILITY
$$



USA.gov is the U.S. government's official web portal to all federal, state and local government web resources and services.